Flag for Sierra Leone Weather past 2 weeks in Kenema, Sierra Leone

Now
77 °F

Partly sunny.


Feels Like: 78 °F
Forecast: N/A
Wind: 5 mph from Southwest

Location: Roberts Field

Current Time: Aug 4, 2015 at 8:31:15 PM

Latest Report: Aug 4, 2015 at 7:30 PM


Visibility: N/A

Pressure: 29.95 "Hg

Humidity: 89%

Dew point: 73 °F

Location of KenemaLocation

Historic Weather in Kenema — Graph

°F

Kenema temperature yesterday

Maximum temperature yesterday: 82 °F (at 10:30 AM)
Minimum temperature yesterday: 72 °F (at 1:00 PM)
Average temperature yesterday: 77 °F

Past Weeks' High & Low Weather Summary

 TemperatureHumidityPressure
High84 °F (Jul 26, 12:30 PM)100% (Jul 21, 3:30 AM)30.04 "Hg (Jul 21, 3:30 AM)
Low70 °F (Jul 29, 6:30 AM)62% (Jul 29, 12:30 PM)29.89 "Hg (Aug 2, 4:30 PM)
Average77 °F87%29.97 "Hg
* Reported Jul 20 7:00 PM — Aug 4 7:30 PM, Kenema, Weather by CustomWeather, © 2015

Note: Actual official high and low records may vary slightly from our data, if they occured in-between our weather recording intervals... More about our weather records

Advertising

Kenema weather history for previous 24 hours

 ConditionsComfort  
Time TempWeatherWind HumidityBarometerVisibility
7:30 PM
Tue, Aug 4
77 °FPartly sunny.5 mph89%29.95 "HgN/A
7:00 PM77 °FPartly sunny.8 mph83%29.95 "HgN/A
6:30 PM77 °FPartly sunny.9 mph83%29.92 "HgN/A
6:00 PM77 °FPartly sunny.9 mph83%29.92 "HgN/A
5:30 PM79 °FPartly sunny.12 mph84%29.92 "HgN/A
5:00 PM79 °FPartly sunny.9 mph84%29.92 "HgN/A
4:30 PM81 °FPartly sunny.12 mph79%29.92 "HgN/A
4:00 PM81 °FPartly sunny.12 mph79%29.92 "HgN/A
3:30 PM81 °FPartly sunny.14 mph79%29.92 "HgN/A
3:00 PM81 °FPartly sunny.12 mph84%29.95 "HgN/A
2:00 PM81 °FPartly sunny.15 mph84%29.95 "HgN/A
1:30 PM81 °FPartly sunny.12 mph84%29.98 "HgN/A
1:00 PM81 °FPartly sunny.13 mph79%29.98 "HgN/A
12:30 PM81 °FPartly sunny.9 mph79%29.98 "HgN/A
12:00 PM79 °FPartly sunny.12 mph84%29.98 "HgN/A
11:30 AM79 °FPartly sunny.14 mph84%30.01 "HgN/A
11:00 AM79 °FPartly sunny.16 mph89%30.01 "HgN/A
10:30 AM79 °FPartly sunny.12 mph89%30.01 "HgN/A
10:00 AM77 °FDrizzle. Partly sunny.8 mph94%29.98 "Hg6 mi
9:30 AM79 °FDrizzle. Partly sunny.12 mph89%29.98 "Hg5 mi
9:00 AM77 °FDrizzle. Partly sunny.6 mph94%29.98 "Hg5 mi
8:30 AM77 °FPartly sunny.7 mph94%29.98 "HgN/A
8:00 AM77 °FPartly sunny.9 mph94%29.95 "HgN/A
7:30 AM77 °FPassing clouds.6 mph94%29.95 "HgN/A
7:00 AM77 °FPassing clouds.9 mph94%29.95 "HgN/A
6:30 AM77 °FPassing clouds.7 mph94%29.95 "Hg6 mi
6:00 AM75 °FPassing clouds.No wind94%29.95 "Hg5 mi
5:30 AM77 °FPassing clouds.No wind94%29.95 "Hg4 mi
5:00 AM77 °FPassing clouds.12 mph94%29.95 "HgN/A
4:30 AM75 °FPassing clouds.8 mph94%29.95 "HgN/A
4:00 AM75 °FPassing clouds.5 mph94%29.95 "HgN/A
3:00 AM75 °FPassing clouds.No wind94%29.95 "HgN/A
2:00 AM75 °FPassing clouds.No wind94%29.95 "Hg5 mi
1:30 AM75 °FLight rain. Passing clouds.No wind94%29.98 "Hg5 mi
1:00 AM75 °FPartly cloudy.No wind94%29.98 "HgN/A
12:30 AM75 °FPartly cloudy.No wind94%29.98 "HgN/A
12:00 AM75 °FPartly cloudy.No wind94%30.01 "HgN/A
11:30 PM
Mon, Aug 3
75 °FPartly cloudy.No wind94%30.01 "HgN/A
11:00 PM75 °FPartly cloudy.No wind94%30.01 "HgN/A
9:00 PM75 °FPassing clouds.No wind94%29.98 "HgN/A
8:00 PM75 °FPassing clouds.No wind94%29.95 "HgN/A
Weather by CustomWeather, © 2015

See weather overviewHow to use our weather pages